Wind_Speed
19 19 19 19 19 19 19 19 19 20 20 20 20 20 20 20 20 19 19 19 19 20 20 20 20 19 19 19 19 18 18 18 18 19 19 19 19 18 18 18 18 18 19
19 19 19 18 18 19 19 19 19 20 20 20 20 20 20 20 20 19 19 19 18 18 18 19 18 18 18 18 18 18 17 17 18 18 19 19 19 19 19 19 19 20 20
19 19 19 19 19 19 19 19 19 20 21 21 20 20 20 20 20 20 19 19 18 18 18 19 18 18 18 19 19 18 18 18 18 19 19 19 20 20 20 20 20 21 21
20 20 20 20 20 20 20 20 20 21 21 21 21 20 20 20 20 20 19 19 19 20 20 20 20 20 19 20 20 20 19 19 19 19 20 20 19 20 20 19 20 20 21
20 20 20 20 20 20 21 21 21 21 21 21 21 21 21 21 20 20 20 20 20 20 21 21 22 22 21 21 21 21 21 20 20 20 20 20 20 20 21 21 20 21 21
20 20 20 20 20 20 20 20 20 20 20 21 21 21 21 22 22 21 21 21 21 20 21 22 23 24 23 23 22 22 22 22 21 21 21 21 21 22 22 22 22 22 21
21 21 21 20 20 20 19 19 18 18 19 20 20 21 21 22 22 22 22 22 22 22 22 22 23 23 24 24 24 24 24 23 23 23 22 22 23 23 23 23 23 23 22
21 21 21 21 21 21 20 19 18 18 18 19 20 21 21 21 22 22 22 23 23 23 23 23 24 24 24 25 25 25 24 24 25 25 24 24 24 24 25 25 25 24 23
22 21 21 21 20 20 20 19 19 19 19 20 20 20 20 21 21 22 22 23 23 24 24 25 24 24 25 26 25 25 25 25 25 26 26 26 25 25 26 26 25 25 25
22 21 21 20 20 20 20 20 20 20 20 20 20 20 21 21 21 21 22 22 23 23 24 24 24 25 25 25 26 26 26 26 26 26 27 27 27 27 27 27 27 27 26
21 21 21 20 21 21 21 20 20 21 21 20 20 20 21 21 21 21 22 22 23 23 24 25 26 26 26 27 27 27 27 27 27 27 28 28 28 29 29 28 28 27 27
19 20 21 21 20 20 21 20 20 21 21 20 20 20 21 21 21 22 22 23 23 23 24 24 25 26 28 29 29 28 29 29 29 29 29 29 28 29 29 28 28 27 27
19 19 20 20 20 20 20 20 20 20 20 21 21 21 21 22 22 22 23 22 23 23 24 24 24 24 26 27 28 28 29 29 29 29 29 29 29 28 28 27 27 27 27
19 19 19 19 19 19 19 19 19 20 20 21 21 21 22 22 23 24 24 23 23 23 23 23 23 23 24 24 25 26 27 28 28 28 28 28 28 28 28 27 27 27 27
18 18 19 19 19 18 18 18 19 20 20 21 22 22 23 23 23 23 23 22 21 21 21 21 22 23 23 23 24 25 25 26 26 26 27 27 27 27 27 27 27 27 26
19 19 19 19 19 19 19 20 20 21 21 21 21 22 22 22 22 22 21 21 21 21 21 22 22 23 23 24 24 25 26 26 26 26 26 26 26 26 26 26 26 26 26
21 20 20 21 21 21 21 22 22 22 21 21 22 21 21 21 21 21 21 21 21 21 21 22 22 23 24 24 25 26 26 26 26 26 26 26 26 27 27 27 27 27 26
20 21 22 22 22 22 22 22 22 22 21 21 21 21 21 21 20 20 20 20 21 21 21 21 22 22 23 23 23 24 24 24 24 24 25 26 26 27 26 26 26 26 26
21 21 21 21 21 21 21 21 21 22 22 22 22 22 21 21 21 21 20 20 21 21 21 21 21 21 22 22 22 22 22 23 23 24 24 25 26 25 25 26 26 27 26
21 21 22 21 21 21 21 21 21 21 21 21 20 21 21 20 20 20 19 20 21 21 21 21 21 21 21 21 21 21 22 22 23 23 24 24 24 24 25 25 25 26 25
21 21 21 21 21 20 21 20 20 20 20 19 20 20 20 20 19 19 19 19 20 20 20 21 21 21 21 22 22 23 23 23 23 24 24 24 24 24 25 25 25 25 25
21 21 21 21 21 20 20 20 19 19 19 20 20 20 19 19 19 19 19 20 20 20 21 21 22 22 22 22 23 24 24 23 23 23 23 23 23 24 23 24 24 25 25
23 22 22 21 21 21 21 20 20 20 20 19 19 20 20 20 20 20 20 21 21 21 20 21 21 22 22 22 23 24 23 23 23 23 22 22 22 23 23 23 24 24 24
23 22 22 22 21 21 21 20 20 20 20 19 19 19 19 20 20 21 21 21 21 21 22 22 22 22 22 22 22 22 23 23 23 23 22 22 22 22 22 22 22 23 24
23 23 23 22 22 21 20 20 20 20 20 20 20 20 20 21 21 22 22 22 22 22 22 22 22 22 21 21 21 22 22 22 22 22 22 22 21 21 22 23 23 24 25
23 23 23 23 22 22 21 20 20 21 21 21 21 21 22 22 22 22 22 22 22 22 22 23 23 22 22 22 22 22 21 21 21 21 21 21 22 22 23 24 25 25 25
Wind_Direction
282 281 278 279 280 281 279 279 277 276 277 278 276 275 275 274 273 271 271 269 268 263 261 260 258 255 255 256 256 257 258 259 258 261 262 261 263 264 264 265 266 269 273
282 279 278 278 279 279 280 281 280 278 277 276 276 275 276 275 272 271 269 267 267 263 257 256 255 255 255 254 257 259 259 260 260 262 265 265 264 264 264 267 267 268 271
280 278 278 278 279 279 279 280 280 277 276 275 275 275 276 275 271 270 270 270 269 265 258 254 255 256 257 257 258 260 262 263 263 264 265 266 266 265 266 267 267 269 270
279 277 277 277 278 279 279 279 278 278 276 274 273 274 274 274 271 269 271 271 270 267 258 255 256 257 259 260 260 261 264 266 265 266 265 266 267 265 267 266 267 269 270
276 276 276 276 277 278 279 279 278 277 274 272 273 272 272 272 272 272 271 270 269 267 262 258 258 258 259 259 261 262 263 265 266 267 266 266 267 267 268 268 270 269 270
275 275 276 277 277 278 278 278 278 276 275 273 272 272 271 272 273 274 272 269 267 266 264 263 261 260 260 259 261 262 262 264 264 265 266 267 266 267 269 269 270 271 271
275 275 276 278 277 280 281 278 278 278 277 274 274 273 272 273 273 272 271 270 270 268 268 267 266 264 260 260 262 262 263 265 265 265 266 266 266 266 268 269 270 271 271
274 274 275 277 277 278 277 275 274 276 275 275 275 274 273 273 272 272 272 273 272 270 268 268 268 265 261 262 263 264 264 264 265 264 266 267 265 265 266 268 268 269 270
274 273 272 274 276 276 275 272 273 274 276 276 276 275 276 274 273 274 275 275 272 270 268 268 267 264 263 262 263 263 263 264 265 265 264 266 268 266 264 264 266 268 269
272 269 271 272 274 274 275 275 273 275 278 277 278 278 277 277 275 276 277 276 274 272 269 267 265 264 263 263 263 262 262 263 264 264 264 266 267 267 267 266 265 266 266
273 267 268 271 273 273 273 274 273 274 277 278 279 279 278 278 277 277 277 278 277 274 271 268 267 266 265 264 263 262 261 263 263 263 264 265 266 266 267 267 266 265 264
274 270 269 270 271 270 271 271 272 274 275 277 278 280 280 279 280 280 279 277 277 276 275 273 270 267 265 265 265 263 263 263 263 263 264 265 265 266 265 265 264 264 263
274 272 270 269 268 268 269 270 271 273 276 279 281 282 282 281 283 283 281 279 278 277 277 275 272 270 268 267 266 265 264 264 265 265 266 266 265 264 264 263 262 262 261
271 271 272 268 267 269 270 271 273 275 278 281 282 281 281 284 285 284 283 280 278 277 275 274 273 272 270 268 267 266 266 265 266 266 266 265 264 264 263 262 262 261 261
271 271 270 269 270 271 273 275 277 278 280 282 284 283 283 284 285 285 283 279 277 276 275 273 272 272 271 271 270 268 266 266 266 266 265 265 264 263 262 262 263 262 260
272 270 270 271 272 273 274 274 275 278 280 281 284 285 284 282 283 285 283 280 278 276 274 274 272 271 272 273 272 270 268 267 267 266 265 264 265 264 261 261 262 261 261
272 271 271 271 274 274 275 276 276 277 277 279 282 284 283 281 281 282 281 278 277 277 277 277 275 275 274 273 272 272 271 270 269 268 266 266 264 262 261 260 261 261 260
270 271 271 271 273 275 276 277 278 278 278 280 282 282 280 279 279 279 279 277 277 279 280 279 279 279 278 276 274 272 271 271 270 270 268 266 265 262 260 259 260 260 259
269 270 270 271 272 273 276 278 279 280 280 279 280 281 280 279 278 277 277 277 278 280 280 280 281 281 282 279 276 274 272 270 270 271 269 267 266 263 260 259 259 259 258
270 271 272 272 272 274 276 278 280 281 280 280 280 281 281 280 278 278 279 279 279 280 281 281 282 284 283 280 278 275 274 273 272 271 270 268 266 264 262 261 260 258 258
270 271 271 272 273 276 277 278 280 281 280 279 281 283 284 282 281 282 282 281 281 280 280 281 283 283 282 279 276 276 275 274 273 272 271 269 267 266 263 262 261 260 259
269 270 270 271 272 275 276 277 278 279 280 280 282 284 283 282 281 281 282 283 284 286 284 283 282 282 281 280 277 277 276 275 275 275 274 271 270 269 266 264 262 260 258
267 268 268 269 271 273 274 275 276 278 280 281 282 283 284 283 281 281 282 283 286 288 285 283 282 282 282 281 278 276 276 276 276 275 275 273 270 269 266 264 263 259 256
265 265 266 267 270 272 274 276 277 278 280 280 280 281 283 284 284 282 280 282 283 282 283 282 281 281 282 280 277 276 276 275 275 274 271 270 268 265 265 263 261 260 258
263 264 265 267 270 272 274 276 277 278 279 280 281 283 284 284 285 284 282 282 282 282 282 283 282 281 282 280 277 276 275 275 275 275 273 270 268 265 264 263 262 261 259
263 265 266 266 268 270 272 275 276 277 277 279 281 283 284 284 284 285 284 284 284 283 282 283 282 282 282 282 281 278 276 274 272 273 273 272 269 265 264 263 263 263 261
Height
5812 5810 5810 5809 5808 5808 5807 5806 5805 5805 5804 5803 5803 5803 5802 5801 5800 5800 5799 5799 5798 5799 5799 5799 5800 5801 5802 5803 5803 5804 5805 5806 5807 5807 5807 5807 5807 5807 5808 5808 5808 5807 5807
5806 5806 5804 5804 5803 5802 5802 5801 5800 5799 5798 5798 5797 5797 5796 5796 5795 5794 5794 5793 5793 5793 5793 5794 5794 5795 5796 5797 5798 5798 5799 5800 5801 5801 5801 5801 5802 5802 5802 5802 5802 5801 5801
5801 5800 5799 5798 5797 5797 5796 5795 5794 5793 5792 5792 5791 5791 5791 5790 5790 5789 5788 5787 5787 5787 5787 5788 5789 5790 5791 5791 5792 5793 5793 5794 5795 5795 5795 5795 5795 5796 5796 5796 5795 5795 5794
5794 5794 5793 5792 5791 5790 5790 5789 5788 5787 5786 5785 5785 5785 5785 5784 5784 5783 5783 5782 5782 5781 5782 5782 5783 5784 5785 5786 5786 5787 5787 5788 5788 5789 5789 5789 5789 5789 5789 5790 5789 5789 5788
5788 5788 5787 5786 5785 5784 5783 5782 5781 5780 5779 5779 5779 5779 5778 5778 5777 5777 5776 5776 5776 5776 5776 5776 5777 5778 5779 5779 5780 5781 5781 5782 5782 5782 5782 5783 5783 5783 5783 5783 5783 5782 5782
5782 5781 5781 5780 5779 5778 5777 5776 5775 5774 5773 5773 5772 5772 5772 5771 5771 5771 5770 5770 5769 5769 5769 5769 5770 5771 5772 5773 5773 5774 5775 5775 5775 5775 5776 5776 5776 5776 5776 5776 5776 5776 5775
5776 5775 5774 5773 5773 5772 5771 5770 5769 5768 5767 5767 5766 5765 5765 5765 5764 5764 5764 5763 5763 5763 5763 5763 5763 5764 5764 5765 5766 5767 5767 5768 5768 5768 5769 5769 5769 5769 5768 5768 5768 5768 5768
5769 5768 5768 5767 5766 5766 5764 5764 5763 5762 5761 5760 5760 5759 5758 5758 5758 5757 5756 5756 5756 5755 5755 5756 5756 5756 5757 5758 5758 5759 5760 5760 5760 5761 5761 5761 5761 5761 5761 5761 5760 5760 5760
5762 5762 5761 5761 5760 5759 5758 5757 5757 5756 5755 5754 5753 5753 5752 5751 5751 5750 5749 5749 5748 5748 5748 5748 5748 5749 5749 5749 5750 5751 5752 5752 5752 5752 5753 5753 5753 5753 5752 5752 5752 5753 5753
5756 5755 5755 5755 5754 5753 5752 5751 5750 5749 5749 5748 5747 5746 5746 5745 5744 5743 5742 5742 5741 5741 5741 5740 5741 5741 5741 5741 5742 5743 5743 5743 5743 5744 5744 5744 5744 5744 5744 5744 5745 5745 5745
5749 5749 5749 5748 5747 5747 5746 5745 5744 5743 5743 5742 5741 5740 5739 5738 5737 5737 5736 5735 5734 5734 5733 5733 5733 5733 5733 5733 5733 5734 5734 5735 5735 5735 5735 5735 5735 5735 5735 5735 5736 5736 5736
5744 5743 5742 5742 5741 5740 5740 5739 5738 5738 5737 5736 5735 5734 5733 5732 5731 5730 5729 5728 5727 5726 5725 5725 5724 5724 5724 5724 5724 5725 5725 5725 5726 5726 5726 5726 5726 5726 5726 5726 5726 5727 5727
5738 5737 5736 5735 5734 5734 5733 5733 5733 5732 5731 5730 5729 5728 5727 5725 5724 5723 5722 5720 5719 5718 5718 5717 5716 5716 5715 5715 5715 5715 5715 5716 5716 5716 5717 5717 5717 5717 5717 5717 5717 5718 5718
5732 5731 5730 5729 5729 5728 5727 5727 5727 5726 5725 5724 5723 5722 5720 5719 5717 5716 5715 5713 5712 5711 5710 5709 5709 5708 5707 5707 5707 5706 5706 5706 5706 5707 5707 5707 5707 5708 5708 5708 5708 5709 5709
5726 5725 5724 5724 5723 5722 5722 5721 5721 5720 5719 5718 5717 5715 5714 5712 5711 5709 5708 5706 5705 5705 5704 5702 5702 5701 5700 5700 5699 5698 5698 5698 5698 5698 5698 5698 5698 5698 5699 5699 5700 5700 5701
5720 5719 5719 5718 5718 5717 5716 5716 5715 5714 5712 5711 5710 5708 5707 5706 5704 5703 5701 5700 5699 5698 5697 5696 5695 5694 5693 5693 5692 5691 5690 5690 5689 5689 5689 5690 5690 5690 5690 5691 5691 5692 5693
5714 5713 5713 5712 5712 5711 5710 5709 5708 5707 5706 5705 5703 5702 5700 5699 5698 5696 5695 5693 5692 5691 5690 5689 5688 5687 5686 5685 5684 5683 5682 5681 5681 5680 5681 5681 5681 5681 5681 5682 5683 5684 5684
5707 5707 5706 5706 5705 5704 5703 5702 5701 5700 5699 5698 5697 5695 5694 5692 5691 5690 5689 5687 5686 5685 5683 5682 5681 5680 5678 5677 5676 5675 5674 5673 5672 5672 5671 5671 5671 5672 5672 5673 5674 5675 5676
5700 5700 5699 5699 5698 5698 5697 5696 5695 5694 5692 5691 5690 5689 5687 5686 5685 5683 5682 5681 5680 5678 5677 5675 5674 5672 5671 5669 5668 5667 5666 5665 5664 5664 5663 5663 5663 5663 5663 5664 5665 5666 5667
5693 5693 5693 5692 5692 5691 5690 5689 5688 5687 5686 5685 5684 5682 5681 5680 5678 5677 5676 5675 5673 5671 5670 5668 5667 5665 5664 5662 5661 5660 5659 5658 5657 5656 5655 5655 5654 5654 5655 5655 5656 5657 5658
5687 5686 5686 5685 5685 5684 5683 5682 5681 5680 5679 5678 5677 5676 5675 5673 5672 5670 5669 5668 5666 5664 5663 5661 5660 5658 5657 5655 5653 5652 5651 5650 5649 5648 5647 5647 5646 5646 5646 5647 5648 5649 5650
5679 5679 5679 5678 5678 5677 5677 5676 5675 5674 5673 5672 5671 5669 5668 5666 5665 5664 5662 5661 5659 5657 5655 5654 5652 5651 5649 5647 5646 5644 5643 5642 5641 5640 5639 5639 5638 5638 5639 5639 5639 5640 5642
5672 5672 5672 5671 5671 5670 5670 5669 5668 5667 5666 5665 5664 5663 5661 5660 5658 5657 5655 5654 5652 5650 5648 5647 5645 5643 5642 5640 5638 5637 5636 5635 5633 5632 5631 5631 5631 5631 5631 5632 5632 5632 5633
5664 5664 5664 5664 5664 5663 5662 5662 5661 5660 5660 5658 5657 5656 5655 5653 5651 5650 5648 5647 5645 5643 5641 5639 5638 5636 5634 5633 5631 5630 5629 5627 5626 5624 5623 5623 5623 5623 5623 5624 5624 5625 5626
5656 5656 5656 5656 5656 5656 5655 5655 5654 5653 5652 5651 5650 5649 5648 5646 5644 5642 5640 5639 5637 5635 5634 5632 5630 5629 5627 5626 5624 5623 5621 5620 5619 5617 5616 5616 5616 5616 5616 5617 5617 5617 5618
5648 5648 5649 5649 5649 5648 5648 5647 5646 5646 5645 5644 5643 5642 5640 5638 5637 5635 5633 5631 5629 5628 5626 5624 5622 5621 5619 5618 5617 5615 5614 5613 5612 5611 5610 5609 5609 5608 5608 5609 5609 5609 5610